EHI
0 0 0 0 0 0 0 0 0 0 0 0 0 0 0 0 0 0 0 0 1 3 4 8 13 16 15 15 16 17 17 15 12 11 9 4 1 0 0 0 0 1 3 3 3 2 1 0 0
0 0 0 0 0 0 0 0 0 0 0 0 0 0 0 0 0 0 0 1 2 3 4 8 13 15 15 15 16 16 16 15 14 12 9 4 1 0 0 1 1 2 3 3 3 2 1 0 0
0 0 0 0 0 0 0 0 0 0 0 0 0 0 0 0 0 0 0 2 4 5 4 6 11 15 14 14 15 15 14 13 13 12 8 4 1 1 1 2 3 3 3 3 2 1 0 0 0
0 0 0 0 0 0 0 0 0 0 0 1 1 1 0 0 0 0 1 3 6 6 4 6 10 13 13 13 13 14 13 11 11 9 6 3 2 3 4 4 3 3 3 3 1 0 0 0 0
0 0 0 0 0 0 0 0 0 0 0 1 2 1 0 0 0 0 1 3 6 6 4 5 9 11 11 11 11 12 12 11 10 8 6 3 3 5 6 5 4 3 3 2 1 0 0 0 0
0 0 0 0 0 0 0 0 0 0 0 1 1 1 1 1 1 0 2 4 7 7 5 4 6 8 9 9 9 11 12 11 11 10 7 5 5 6 6 5 3 3 3 1 0 0 0 0 0
0 0 0 0 0 0 0 0 0 0 0 0 0 1 2 2 2 2 4 7 8 8 5 3 4 5 5 6 7 8 9 8 9 9 7 6 6 6 5 4 3 3 2 1 0 0 0 0 0
0 0 0 0 0 0 0 0 0 0 0 0 0 0 1 3 4 5 7 9 10 8 6 4 4 3 3 2 4 5 5 5 5 5 5 5 5 4 3 2 2 2 1 0 0 0 0 0 0
0 0 0 0 0 0 0 0 0 0 0 0 0 0 1 3 5 6 8 10 10 9 8 6 5 3 2 1 1 2 3 2 3 3 3 2 2 1 1 1 1 1 0 0 0 0 0 0 0
0 0 0 0 0 0 0 0 0 0 0 0 1 1 1 2 3 5 7 8 8 8 8 7 5 4 2 0 1 2 3 2 3 3 3 2 1 0 0 0 0 0 0 0 0 0 0 0 0
0 0 0 0 0 0 0 0 0 0 0 0 0 0 1 1 1 2 4 4 4 5 7 7 6 4 3 1 1 2 4 5 5 4 3 4 4 2 0 0 0 0 0 0 1 1 0 0 0
0 0 0 0 0 0 0 0 0 0 0 0 0 0 0 0 0 0 1 2 2 3 6 6 5 4 3 2 2 3 5 6 7 6 4 5 6 5 2 0 0 0 0 1 2 1 0 0 0
0 0 0 0 0 0 0 0 0 0 0 0 0 0 0 0 0 1 1 2 2 3 4 4 4 3 3 2 2 4 5 7 8 7 5 4 5 4 2 1 1 0 0 1 2 1 0 0 0
0 0 0 0 0 0 0 0 0 0 0 0 0 0 0 0 0 1 2 3 2 2 3 3 3 3 2 1 1 3 5 7 8 6 4 4 3 2 1 2 2 2 1 1 2 1 0 0 0
0 0 0 0 0 0 0 0 0 0 0 0 0 0 0 0 0 1 3 3 2 1 2 3 3 3 1 0 1 3 5 6 7 6 4 3 2 1 0 2 2 2 2 2 1 1 0 0 0
0 0 0 0 0 0 0 0 0 0 0 0 0 0 0 0 0 1 2 3 2 1 2 3 3 2 1 0 1 2 4 5 6 5 3 1 1 0 0 2 2 2 2 2 1 0 0 0 0
0 0 0 0 0 0 0 0 0 0 0 0 0 0 0 0 0 1 2 3 1 1 2 3 3 1 0 0 0 1 2 2 4 5 3 1 0 0 0 1 1 1 1 1 0 0 0 0 0
0 0 0 0 0 0 0 0 0 0 0 0 0 0 0 0 0 1 2 2 1 1 2 3 2 1 0 0 0 1 1 1 3 4 3 2 1 0 0 0 0 0 0 0 0 0 0 0 0
0 0 0 0 0 0 0 0 0 0 0 0 0 0 0 0 0 1 2 2 1 0 1 2 1 0 0 0 1 1 1 1 3 4 3 3 2 1 1 1 0 0 0 0 0 0 0 0 0
0 0 0 0 0 0 0 0 0 0 0 0 0 0 0 0 0 1 1 1 0 0 0 0 0 0 0 1 2 2 2 2 3 3 3 3 2 1 1 2 1 0 0 0 0 0 0 0 0
0 0 0 0 0 0 0 0 0 0 0 0 0 0 0 0 0 0 1 0 0 0 0 0 0 0 0 1 2 2 2 2 1 2 2 3 3 1 1 2 2 1 0 0 0 0 0 0 0
0 0 0 0 0 0 0 0 0 0 0 0 0 0 0 0 0 1 1 1 0 0 0 0 0 0 0 0 1 1 1 1 0 0 1 2 3 2 1 1 2 1 1 0 0 0 0 0 0
0 0 0 0 0 0 0 0 0 0 0 0 0 0 0 0 0 1 2 2 1 1 0 0 0 0 0 0 0 0 0 0 0 0 0 1 2 1 0 0 1 2 2 1 0 0 0 0 0
0 0 0 0 0 0 0 0 0 0 0 0 0 0 0 0 0 1 2 3 3 2 1 1 1 0 1 1 1 0 0 0 0 0 0 1 1 1 0 0 1 2 3 2 1 0 0 0 0
0 0 0 0 0 0 0 0 0 0 0 0 0 0 0 0 0 1 2 3 3 3 3 2 2 1 1 1 1 0 0 0 0 0 0 0 0 0 0 0 1 2 3 2 1 0 0 0 0
0 0 0 0 0 0 0 0 0 0 0 0 0 0 0 1 0 0 1 3 3 3 3 3 3 2 1 0 0 0 0 0 0 0 0 0 0 0 0 0 0 1 2 2 1 1 0 0 0
0 0 0 0 0 0 0 0 0 0 0 0 0 0 0 0 0 0 1 2 2 3 3 3 3 2 1 0 0 0 0 0 0 0 0 0 0 0 0 0 0 1 1 1 1 1 0 0 0
0 0 0 0 0 0 0 0 0 0 0 0 0 0 0 0 0 0 0 1 1 1 3 3 3 2 1 1 0 0 0 0 0 0 0 0 0 0 0 0 0 0 0 0 1 1 0 0 0
0 0 0 0 0 0 0 0 0 0 0 0 0 0 0 0 0 0 0 0 0 1 2 3 3 2 2 2 1 0 0 0 0 0 0 0 0 0 0 0 0 0 0 0 0 0 0 0 0
0 0 0 0 0 0 0 0 0 0 0 0 0 0 0 0 0 0 0 0 0 0 1 2 2 2 2 2 2 1 0 0 0 0 0 0 0 0 0 0 0 0 0 0 0 0 0 0 0
Wind_Speed
8 5 3 3 5 6 9 6 4 4 3 1 1 2 2 0 1 3 4 2 2 3 6 8 6 6 7 7 7 8 8 8 8 9 9 9 9 9 9 9 9 9 10 10 10 10 11 11 11
6 4 3 4 7 9 8 7 7 4 2 1 2 2 2 1 3 4 2 2 2 4 5 7 6 7 7 7 8 8 8 8 8 8 8 9 9 9 9 9 9 10 10 10 10 10 10 10 10
4 3 3 4 7 10 8 4 4 3 3 2 2 1 1 2 2 2 2 2 3 4 5 7 5 6 8 8 8 8 8 8 8 8 8 8 8 9 9 9 9 9 9 9 9 10 10 9 9
2 3 3 6 11 9 7 3 2 4 4 3 2 3 2 3 2 2 2 3 4 4 4 7 5 5 7 7 7 8 8 8 8 8 7 8 8 8 8 8 8 9 9 9 9 9 9 9 8
2 3 6 8 12 8 6 3 4 5 4 3 3 2 2 3 3 3 3 3 4 4 4 6 5 5 6 6 7 7 7 7 7 7 7 8 7 7 7 8 8 8 8 8 8 8 8 8 7
2 4 8 12 12 8 6 4 5 6 4 3 3 3 2 3 2 3 2 2 3 4 4 5 5 5 5 5 6 7 7 7 7 7 7 7 7 7 7 7 8 7 8 8 8 7 7 7 6
3 4 8 11 10 9 4 3 5 6 6 4 3 3 3 3 2 2 2 2 3 4 4 4 5 4 4 4 5 6 6 6 6 6 6 6 7 7 7 7 7 7 7 7 7 7 7 6 6
1 3 7 9 10 8 3 2 3 5 5 2 4 4 3 2 1 1 2 2 3 3 3 3 3 4 4 4 5 5 5 6 6 5 6 6 6 6 6 6 6 6 7 7 7 7 6 6 5
2 5 8 8 8 5 2 3 2 3 4 4 3 3 3 2 2 2 2 2 2 2 2 2 2 2 3 4 5 5 5 5 5 6 6 5 5 5 5 6 6 6 6 6 6 6 6 5 5
2 6 8 4 4 3 3 4 3 4 6 6 4 2 1 3 4 4 4 4 3 3 2 2 2 2 3 3 3 4 4 5 5 5 6 4 4 3 3 6 5 5 5 6 6 6 5 3 3
2 4 4 4 3 4 5 6 5 6 7 7 6 4 3 4 4 5 5 5 5 4 3 3 2 2 2 2 2 2 2 3 4 5 5 4 3 3 3 3 4 4 4 4 5 5 3 2 2
3 3 4 4 4 4 6 6 7 9 9 7 7 5 5 6 6 6 6 6 5 5 4 3 3 3 2 2 2 2 2 2 2 3 5 4 3 3 3 2 3 3 2 2 3 2 3 2 3
5 4 4 4 5 6 7 8 9 11 9 8 7 6 7 7 7 6 6 6 6 5 5 4 4 4 3 2 2 2 2 3 3 3 4 4 3 3 3 2 2 2 2 2 2 2 3 2 2
2 3 5 6 6 6 7 9 9 11 7 7 7 7 8 8 8 7 6 7 7 6 6 5 5 4 3 3 3 3 3 3 3 3 3 4 3 3 3 3 2 2 2 2 2 2 2 2 1
4 4 5 5 5 4 6 10 11 9 8 8 8 8 8 8 8 8 7 8 8 7 6 6 5 5 5 4 4 3 3 3 3 3 4 4 3 4 3 3 3 2 2 3 2 2 2 1 2
4 5 5 3 4 4 7 12 8 7 8 9 9 8 7 8 9 8 7 7 7 7 7 6 5 5 5 4 4 3 3 3 3 3 4 4 4 4 4 3 3 2 2 2 2 2 2 2 2
3 5 6 5 3 4 8 11 8 7 9 10 9 9 8 8 9 8 8 7 7 7 7 7 6 6 5 4 3 3 3 3 3 3 3 4 4 4 4 3 3 3 2 2 2 2 2 2 2
4 6 7 7 3 6 10 13 10 8 9 10 9 9 8 9 9 7 7 6 5 6 6 7 7 6 5 3 3 2 3 3 3 3 3 4 4 5 4 3 4 4 3 3 3 3 2 2 2
4 6 8 8 5 7 11 14 12 9 9 10 9 9 8 9 8 6 5 5 5 5 6 7 7 6 5 3 4 4 3 3 3 3 4 5 5 5 4 3 4 4 4 4 4 3 3 2 2
6 7 7 6 4 7 11 14 12 9 10 9 9 9 8 7 7 6 5 5 5 6 6 7 7 6 6 5 4 3 3 3 3 3 4 5 5 5 4 4 4 4 3 4 4 4 3 2 2
7 8 7 7 8 6 8 9 8 7 8 7 8 7 7 7 8 6 5 5 5 6 6 6 6 6 6 6 4 3 3 2 3 4 4 5 5 5 5 5 4 4 4 4 5 5 5 4 3
6 5 7 7 6 4 4 7 6 6 7 6 6 6 6 6 6 6 6 5 6 6 5 5 5 5 5 6 6 7 5 5 5 4 4 4 5 5 5 5 5 5 4 5 5 5 5 5 4
4 4 5 6 5 6 5 7 6 5 7 7 7 6 6 6 5 5 5 5 5 5 4 5 5 5 6 6 7 7 6 5 3 4 4 5 5 5 5 5 5 5 5 5 5 5 5 5 5
3 3 4 4 4 7 5 7 7 4 7 6 6 6 5 4 4 4 4 4 4 4 3 4 5 5 5 6 7 8 7 6 5 5 5 5 4 4 5 5 5 5 4 5 4 5 6 5 5
2 2 2 2 4 5 2 7 9 5 5 6 6 6 4 4 4 3 4 5 5 4 4 4 4 5 6 6 7 7 7 7 8 7 6 5 4 4 5 5 5 5 5 5 5 4 5 5 5
3 3 3 4 5 4 4 8 6 3 4 4 5 5 4 4 3 4 4 5 5 5 4 4 5 5 5 6 6 6 6 5 5 6 5 6 4 4 5 5 5 5 5 5 5 4 4 4 5
4 4 2 3 4 7 6 7 7 5 4 4 4 4 4 4 4 5 5 5 4 5 5 5 5 5 4 5 6 6 6 6 6 6 5 4 4 4 5 5 5 5 5 5 5 4 4 5 5
3 3 3 4 4 6 7 8 6 3 4 4 4 4 5 5 5 5 4 4 4 4 4 4 4 5 4 4 4 4 6 6 6 5 6 5 5 5 5 5 5 5 5 5 5 4 4 5 4
4 4 4 3 4 6 7 5 0 3 3 4 5 5 6 6 5 5 4 4 4 3 4 4 3 4 4 4 4 4 5 5 5 5 5 5 5 5 6 6 5 5 6 6 5 5 5 5 5
5 6 6 5 5 6 7 7 1 3 3 4 6 6 6 6 5 4 4 4 4 4 3 3 3 4 4 3 4 4 4 4 5 5 5 5 5 5 6 6 5 5 5 5 6 5 5 5 5
Wind_Direction
325 314 275 237 220 223 229 213 208 181 184 195 222 234 238 236 333 55 47 58 88 136 145 152 145 140 135 132 127 127 129 127 128 127 127 128 128 126 122 116 113 110 107 104 102 100 98 94 92
321 300 237 228 231 223 220 213 207 200 147 153 182 215 204 128 39 60 68 55 111 131 139 148 132 136 132 129 127 127 126 124 124 125 127 129 129 128 124 120 115 110 108 106 104 102 100 96 94
303 285 239 217 228 231 216 193 207 196 178 192 175 204 271 65 74 77 57 110 121 131 135 124 119 133 131 130 129 129 127 124 123 123 127 129 131 129 126 123 118 114 111 109 107 105 103 100 98
268 211 222 229 226 230 234 197 189 184 188 205 204 156 115 57 49 54 92 128 121 126 132 123 112 124 131 130 131 131 129 127 125 126 129 128 129 129 127 123 119 116 115 113 111 109 108 105 103
256 223 212 223 233 230 235 252 231 218 200 194 215 205 145 95 57 80 106 124 119 118 116 124 110 111 124 132 132 132 132 131 129 128 131 129 126 126 127 125 123 121 119 116 114 113 113 110 109
201 222 224 227 228 225 230 246 240 238 224 208 221 221 159 106 85 91 111 121 112 110 116 124 105 100 104 120 129 130 132 132 129 127 129 128 125 123 122 123 123 123 122 120 117 115 114 112 114
222 220 234 235 236 230 228 248 237 238 229 232 257 232 176 136 85 114 133 127 113 108 115 129 140 130 109 108 116 123 130 130 127 124 126 125 124 126 124 123 124 122 121 123 122 120 119 115 112
290 225 230 231 234 234 219 239 256 252 243 269 256 239 213 146 119 160 145 134 122 121 117 111 137 147 148 144 120 113 122 128 124 118 117 117 123 127 124 128 121 125 125 124 124 122 122 118 111
246 226 229 227 232 235 229 240 260 284 247 243 251 282 313 139 159 171 160 157 145 139 137 134 129 148 154 152 141 135 128 130 137 132 119 136 148 143 144 123 113 122 129 129 128 126 121 122 119
218 227 236 246 253 259 265 270 271 250 238 238 236 258 269 163 181 189 191 194 191 189 183 170 155 147 159 155 159 163 159 161 170 161 156 159 151 140 134 115 111 115 122 132 127 126 141 166 143
204 229 236 251 271 281 267 275 269 249 244 245 248 245 229 209 208 214 213 209 208 205 204 194 181 161 160 166 163 167 163 168 177 171 165 163 150 142 145 142 136 137 145 146 143 163 169 168 146
208 233 252 253 268 277 273 271 266 256 256 271 267 253 235 227 223 225 229 224 217 212 214 210 191 179 167 175 169 175 175 173 169 172 172 168 162 162 159 164 163 166 169 161 178 184 171 172 170
226 237 250 263 260 269 274 264 265 263 268 267 256 243 237 237 236 234 236 233 226 218 216 214 200 192 176 174 180 178 189 181 168 170 177 175 174 171 168 173 171 176 177 182 179 190 178 181 181
224 243 257 266 265 266 265 268 261 258 262 253 242 238 240 241 240 237 235 232 230 223 219 217 206 198 189 185 184 183 192 182 176 171 176 183 179 175 176 175 180 180 183 188 192 191 195 193 200
237 259 254 254 252 253 267 261 248 254 256 251 246 245 250 248 244 236 235 232 230 224 219 216 208 201 195 196 190 189 190 182 182 181 179 183 184 180 178 180 186 185 188 192 199 192 203 211 211
229 238 244 239 253 248 247 257 249 251 248 251 249 248 251 251 251 244 239 235 232 226 220 216 211 209 200 199 193 187 194 190 186 187 182 182 185 186 181 180 184 186 192 198 202 207 208 213 229
214 244 253 265 250 257 247 263 265 261 254 252 247 247 250 256 259 248 241 233 229 225 216 209 208 209 201 201 196 188 195 198 188 185 182 185 187 193 190 185 180 183 189 200 206 218 223 224 237
239 255 258 263 270 267 257 262 270 263 250 248 246 247 249 255 255 248 245 236 227 224 213 205 204 205 198 197 189 180 196 205 192 190 188 188 191 197 197 191 188 188 191 200 206 214 228 238 238
255 260 268 274 283 276 261 264 263 257 251 249 248 248 248 255 252 246 243 238 230 228 217 204 205 204 197 197 191 190 206 210 199 197 196 195 194 197 201 196 193 198 201 206 208 207 216 235 236
249 260 270 278 285 276 273 271 261 247 244 245 246 249 248 249 247 244 237 234 232 226 225 215 212 207 208 209 198 203 209 210 210 202 202 200 199 199 204 205 201 202 204 207 208 206 215 230 226
245 251 266 285 302 265 280 268 244 241 238 244 245 244 248 247 242 238 235 234 231 228 226 219 213 210 216 211 192 192 195 195 207 211 209 208 204 203 205 212 211 207 208 210 214 213 215 221 226
254 256 265 276 287 288 290 279 253 249 243 241 242 243 252 257 247 235 240 244 241 235 232 224 217 215 217 207 205 203 206 211 218 219 219 210 207 207 208 213 216 210 210 213 215 218 221 219 220
259 290 267 263 263 271 251 260 263 243 250 249 244 244 249 256 251 245 246 247 246 239 232 231 225 218 214 211 210 211 217 222 216 216 220 216 208 207 207 213 219 216 213 216 216 216 219 221 223
250 253 248 241 244 254 241 248 266 240 251 258 251 251 251 253 252 262 278 281 261 247 237 233 229 224 215 215 216 217 216 212 212 218 221 218 214 210 209 210 217 220 216 215 215 217 220 222 223
227 247 265 238 232 251 225 244 258 263 263 261 256 256 261 264 263 274 289 292 276 251 238 241 233 226 219 219 221 221 219 214 213 217 221 218 216 218 214 211 217 220 215 214 212 213 220 222 220
225 236 245 270 270 280 238 248 263 281 292 283 272 269 270 274 281 285 287 280 271 261 241 236 235 236 231 225 226 222 221 221 221 219 221 219 217 221 218 213 216 223 217 214 211 213 218 222 222
208 210 254 266 279 272 253 262 275 269 288 297 292 292 286 289 294 294 291 282 269 264 252 240 242 244 243 238 232 223 219 220 224 223 220 220 214 215 217 214 209 219 215 212 211 213 217 221 223
246 195 202 224 257 266 266 257 255 253 264 280 288 288 292 298 299 299 295 284 274 272 275 265 255 251 249 246 239 228 221 217 221 223 222 219 215 211 212 215 212 217 215 211 210 214 218 221 222
197 201 216 229 261 267 275 266 286 259 266 271 278 285 296 299 300 300 298 285 278 280 280 279 278 275 265 251 245 238 228 216 218 224 224 220 218 214 211 213 214 216 215 211 209 215 215 220 222
237 226 212 230 236 247 272 276 56 297 294 287 291 300 297 291 291 293 294 288 284 283 282 284 283 279 275 267 251 244 233 220 217 225 226 218 217 220 214 212 214 214 215 214 210 212 214 216 221